Погода в Годонине

Чехия     48°51′15″N   17°07′14″E
темп.,
°C
ветер,
м/с
пор.,
м/с
влажн.,
%
обл.,
%
осадки,
мм/ч
давл.,
гПа
погр.,
м
7 мая, пт
пт723:00+8ююв61465100 0.0 1008792
02:00+8ю597599 0.0 1007348
05:00+7ю3782100 0.1 1007212
08:00+10юз41082100 0.3 1008608
11:00+12з586846 0.8 10081198
14:00+12з4768100 1.1 1008618
17:00+12сз7106784 1.4 10101163
20:00+7сз5108040 1.8 1015316
8 мая, сб
сб823:00+4зсз39835 0.0 1018174
02:00+3зсз38900 0.0 1021168
05:00+1з37930 0.0 1022118
08:00+6зсз35730 0.0 1023324
11:00+11зсз34515 0.0 10221489
14:00+14зюз344393 0.0 10212061
17:00+14ююз124161 0.0 10201246
20:00+9юв225910 0.0 102012
9 мая, вс
вс923:00+7юв37705 0.0 1021114
02:00+6юв41170100 0.0 1021210
05:00+5юв497260 0.0 1021186
08:00+10ююв613655 0.0 1021581
11:00+15ююв9125128 0.0 10201017
14:00+18ююв912485 0.0 10181291
17:00+18ююв914545 0.0 10171264
20:00+15юв917585 0.0 1017806
10 мая, пн
пн1023:00+13юв1019600 0.0 1016722
02:00+12юв1120650 0.0 1015647
05:00+11юв1019695 0.0 1014626
08:00+12юв1018715 0.0 1015724
11:00+17ююв11156340 0.0 10141251
14:00+21ююв10156278 0.0 10131618
17:00+22юв1015620 0.0 10121506
20:00+19юв1017680 0.0 1011758
11 мая, вт
вт1123:00+18юв1018692 0.0 1011840
02:00+16юв1120750 0.0 1010738
05:00+14юв1120720 0.0 1010689
08:00+15юв10187392 0.0 1012809
11:00+19юв101667100 0.0 10111190
14:00+24ююв1016580 0.0 10101536
17:00+23юв1116625 0.0 10081303
20:00+19юв1017705 0.0 1008725